QPF
0.00 0.01 0.01 0.01 0.02 0.02 0.02 0.04 0.03 0.01 0.01 0.01 0.01 0.01 0.01 0.00 0.00 0.00 0.00 0.00 0.01 0.01 0.01 0.02 0.01 0.03 0.06 0.09 0.09 0.08 0.08 0.08 0.14 0.21 0.23 0.16 0.10 0.07
0.00 0.00 0.00 0.00 0.01 0.01 0.02 0.05 0.06 0.03 0.01 0.01 0.00 0.00 0.00 0.00 0.00 0.00 0.00 0.00 0.00 0.00 0.00 0.01 0.01 0.02 0.03 0.08 0.12 0.12 0.10 0.07 0.09 0.14 0.21 0.21 0.13 0.06
0.00 0.00 0.00 0.00 0.00 0.01 0.02 0.04 0.05 0.03 0.02 0.00 0.00 0.00 0.00 0.00 0.00 0.00 0.00 0.00 0.00 0.00 0.01 0.01 0.01 0.02 0.03 0.04 0.08 0.10 0.11 0.11 0.11 0.11 0.13 0.17 0.14 0.07
0.00 0.00 0.01 0.00 0.00 0.01 0.01 0.02 0.02 0.01 0.00 0.00 0.00 0.00 0.00 0.00 0.00 0.00 0.00 0.00 0.00 0.00 0.01 0.01 0.01 0.01 0.02 0.03 0.05 0.07 0.07 0.10 0.12 0.11 0.09 0.10 0.10 0.08
0.00 0.00 0.00 0.00 0.00 0.00 0.00 0.00 0.00 0.00 0.00 0.00 0.00 0.00 0.00 0.00 0.00 0.00 0.00 0.00 0.00 0.00 0.01 0.01 0.01 0.01 0.01 0.02 0.03 0.05 0.06 0.06 0.07 0.09 0.09 0.08 0.07 0.06
0.00 0.00 0.00 0.00 0.00 0.00 0.00 0.00 0.00 0.00 0.00 0.00 0.00 0.00 0.00 0.00 0.01 0.00 0.00 0.00 0.00 0.01 0.01 0.01 0.00 0.00 0.01 0.01 0.01 0.03 0.06 0.06 0.05 0.05 0.05 0.08 0.09 0.07
0.00 0.00 0.00 0.00 0.00 0.00 0.00 0.00 0.00 0.00 0.00 0.00 0.00 0.00 0.00 0.01 0.01 0.00 0.00 0.00 0.00 0.01 0.01 0.01 0.01 0.00 0.00 0.00 0.01 0.01 0.03 0.05 0.06 0.05 0.05 0.05 0.05 0.07
0.00 0.00 0.00 0.00 0.00 0.01 0.01 0.01 0.01 0.00 0.00 0.00 0.00 0.00 0.00 0.01 0.00 0.00 0.00 0.00 0.00 0.01 0.01 0.01 0.01 0.00 0.00 0.00 0.00 0.01 0.01 0.02 0.03 0.04 0.04 0.04 0.04 0.04
0.00 0.00 0.00 0.00 0.00 0.01 0.01 0.01 0.01 0.00 0.00 0.00 0.00 0.00 0.00 0.00 0.00 0.00 0.00 0.00 0.00 0.01 0.01 0.01 0.01 0.01 0.00 0.00 0.00 0.00 0.01 0.01 0.01 0.02 0.03 0.02 0.03 0.03
0.00 0.00 0.00 0.00 0.00 0.00 0.01 0.00 0.00 0.00 0.00 0.00 0.00 0.00 0.00 0.00 0.00 0.00 0.00 0.00 0.01 0.01 0.01 0.00 0.00 0.01 0.01 0.01 0.01 0.00 0.00 0.00 0.00 0.01 0.01 0.01 0.01 0.01
0.00 0.00 0.00 0.00 0.00 0.00 0.01 0.01 0.00 0.00 0.00 0.00 0.00 0.00 0.00 0.00 0.00 0.00 0.00 0.01 0.01 0.01 0.01 0.00 0.00 0.00 0.00 0.00 0.00 0.00 0.00 0.00 0.00 0.00 0.00 0.00 0.00 0.00
0.00 0.00 0.00 0.00 0.00 0.00 0.01 0.01 0.01 0.00 0.00 0.00 0.00 0.00 0.00 0.00 0.00 0.00 0.00 0.01 0.01 0.01 0.00 0.00 0.00 0.00 0.00 0.00 0.00 0.00 0.00 0.00 0.00 0.00 0.00 0.00 0.00 0.00
0.00 0.00 0.00 0.00 0.00 0.00 0.00 0.01 0.01 0.01 0.00 0.00 0.00 0.00 0.00 0.00 0.00 0.00 0.01 0.01 0.01 0.00 0.00 0.00 0.00 0.00 0.00 0.00 0.00 0.00 0.00 0.00 0.00 0.00 0.00 0.00 0.00 0.00
0.00 0.00 0.00 0.00 0.00 0.00 0.00 0.00 0.01 0.00 0.00 0.00 0.00 0.00 0.00 0.00 0.00 0.01 0.01 0.01 0.01 0.00 0.00 0.00 0.00 0.00 0.00 0.00 0.00 0.00 0.00 0.00 0.00 0.00 0.00 0.00 0.00 0.00
0.00 0.00 0.00 0.00 0.00 0.00 0.00 0.00 0.00 0.00 0.00 0.00 0.00 0.00 0.00 0.00 0.00 0.01 0.00 0.01 0.00 0.00 0.00 0.00 0.00 0.00 0.00 0.00 0.00 0.00 0.00 0.00 0.00 0.00 0.00 0.00 0.00 0.00
0.00 0.00 0.00 0.00 0.00 0.00 0.00 0.00 0.00 0.00 0.00 0.00 0.00 0.00 0.00 0.00 0.00 0.00 0.00 0.00 0.00 0.00 0.00 0.00 0.00 0.00 0.00 0.00 0.00 0.00 0.00 0.00 0.00 0.00 0.00 0.00 0.00 0.00
0.00 0.00 0.00 0.00 0.00 0.00 0.00 0.00 0.00 0.00 0.00 0.00 0.00 0.00 0.00 0.00 0.00 0.00 0.00 0.00 0.00 0.00 0.00 0.00 0.00 0.00 0.00 0.00 0.00 0.00 0.00 0.00 0.00 0.00 0.00 0.00 0.00 0.00
0.00 0.00 0.00 0.00 0.00 0.00 0.00 0.00 0.00 0.00 0.00 0.00 0.00 0.00 0.00 0.00 0.00 0.00 0.00 0.00 0.00 0.00 0.00 0.00 0.00 0.00 0.00 0.00 0.00 0.00 0.00 0.00 0.00 0.00 0.00 0.00 0.00 0.00
0.00 0.00 0.00 0.00 0.00 0.00 0.00 0.00 0.00 0.00 0.00 0.00 0.00 0.00 0.00 0.00 0.00 0.00 0.00 0.00 0.00 0.00 0.00 0.00 0.00 0.01 0.01 0.01 0.00 0.00 0.00 0.00 0.00 0.00 0.00 0.00 0.00 0.00
0.00 0.00 0.00 0.00 0.00 0.00 0.00 0.00 0.00 0.00 0.00 0.00 0.00 0.00 0.00 0.00 0.00 0.00 0.00 0.00 0.00 0.00 0.00 0.00 0.01 0.01 0.02 0.02 0.01 0.00 0.00 0.00 0.00 0.00 0.00 0.00 0.00 0.00
0.00 0.00 0.00 0.00 0.00 0.00 0.00 0.00 0.00 0.00 0.00 0.00 0.00 0.00 0.00 0.00 0.00 0.00 0.00 0.00 0.00 0.00 0.01 0.00 0.01 0.01 0.01 0.01 0.01 0.00 0.00 0.00 0.00 0.00 0.00 0.01 0.01 0.00
0.00 0.00 0.00 0.00 0.00 0.00 0.00 0.00 0.00 0.00 0.00 0.00 0.00 0.00 0.00 0.00 0.00 0.00 0.00 0.00 0.01 0.01 0.00 0.00 0.01 0.01 0.01 0.01 0.01 0.01 0.00 0.00 0.00 0.00 0.00 0.00 0.01 0.01
0.00 0.00 0.00 0.00 0.00 0.00 0.00 0.00 0.00 0.00 0.00 0.00 0.00 0.00 0.00 0.00 0.00 0.00 0.00 0.01 0.01 0.01 0.01 0.01 0.01 0.01 0.01 0.01 0.01 0.01 0.01 0.00 0.00 0.00 0.00 0.00 0.00 0.00
MSLP
1021.71 1021.76 1021.88 1022.06 1022.30 1022.57 1022.87 1023.18 1023.48 1023.76 1024.02 1024.26 1024.47 1024.65 1024.80 1024.91 1024.97 1025.00 1024.98 1024.93 1024.85 1024.76 1024.68 1024.60 1024.52 1024.46 1024.41 1024.35 1024.28 1024.19 1024.08 1023.95 1023.81 1023.65 1023.49 1023.34 1023.19 1023.06
1022.07 1022.09 1022.15 1022.27 1022.43 1022.64 1022.87 1023.11 1023.36 1023.61 1023.86 1024.10 1024.33 1024.54 1024.72 1024.88 1025.00 1025.08 1025.12 1025.12 1025.10 1025.06 1025.02 1024.97 1024.93 1024.90 1024.86 1024.81 1024.75 1024.66 1024.56 1024.42 1024.26 1024.09 1023.91 1023.74 1023.56 1023.39
1022.47 1022.47 1022.49 1022.55 1022.65 1022.78 1022.93 1023.11 1023.29 1023.49 1023.71 1023.93 1024.15 1024.37 1024.57 1024.76 1024.91 1025.03 1025.11 1025.15 1025.17 1025.16 1025.15 1025.13 1025.12 1025.10 1025.09 1025.06 1025.01 1024.94 1024.85 1024.72 1024.57 1024.40 1024.22 1024.03 1023.84 1023.65
1022.87 1022.86 1022.86 1022.89 1022.94 1023.01 1023.10 1023.20 1023.33 1023.47 1023.64 1023.82 1024.02 1024.23 1024.43 1024.62 1024.79 1024.92 1025.01 1025.07 1025.10 1025.11 1025.10 1025.09 1025.09 1025.08 1025.08 1025.06 1025.04 1025.00 1024.93 1024.83 1024.71 1024.56 1024.39 1024.21 1024.01 1023.81
1023.20 1023.21 1023.22 1023.23 1023.26 1023.29 1023.34 1023.39 1023.47 1023.56 1023.68 1023.82 1023.98 1024.16 1024.34 1024.51 1024.66 1024.78 1024.87 1024.92 1024.93 1024.92 1024.90 1024.88 1024.86 1024.85 1024.84 1024.84 1024.84 1024.83 1024.80 1024.75 1024.67 1024.56 1024.42 1024.26 1024.08 1023.88
1023.42 1023.45 1023.49 1023.52 1023.55 1023.58 1023.60 1023.63 1023.66 1023.72 1023.79 1023.89 1024.01 1024.15 1024.30 1024.44 1024.56 1024.64 1024.70 1024.71 1024.69 1024.64 1024.58 1024.52 1024.47 1024.44 1024.42 1024.42 1024.44 1024.46 1024.47 1024.47 1024.44 1024.39 1024.30 1024.17 1024.01 1023.83
1023.46 1023.54 1023.62 1023.69 1023.74 1023.78 1023.81 1023.83 1023.84 1023.87 1023.91 1023.97 1024.06 1024.15 1024.26 1024.36 1024.44 1024.48 1024.49 1024.46 1024.39 1024.29 1024.18 1024.07 1023.97 1023.90 1023.86 1023.85 1023.87 1023.92 1023.97 1024.02 1024.05 1024.05 1024.01 1023.93 1023.79 1023.62
1023.32 1023.45 1023.57 1023.67 1023.77 1023.84 1023.88 1023.91 1023.93 1023.94 1023.96 1023.99 1024.03 1024.09 1024.16 1024.22 1024.25 1024.26 1024.23 1024.15 1024.03 1023.89 1023.72 1023.56 1023.41 1023.29 1023.22 1023.19 1023.21 1023.26 1023.34 1023.42 1023.49 1023.54 1023.54 1023.49 1023.38 1023.22
1023.00 1023.16 1023.32 1023.47 1023.61 1023.71 1023.78 1023.82 1023.84 1023.85 1023.85 1023.86 1023.88 1023.90 1023.94 1023.96 1023.97 1023.94 1023.88 1023.77 1023.62 1023.43 1023.22 1023.01 1022.82 1022.65 1022.54 1022.48 1022.47 1022.52 1022.60 1022.69 1022.79 1022.86 1022.89 1022.85 1022.76 1022.60
1022.53 1022.72 1022.91 1023.09 1023.26 1023.39 1023.48 1023.54 1023.56 1023.57 1023.56 1023.55 1023.54 1023.54 1023.55 1023.55 1023.53 1023.49 1023.41 1023.29 1023.12 1022.91 1022.68 1022.44 1022.21 1022.01 1021.85 1021.75 1021.70 1021.72 1021.77 1021.85 1021.94 1022.00 1022.03 1022.00 1021.91 1021.75
1021.98 1022.18 1022.38 1022.58 1022.76 1022.90 1023.01 1023.07 1023.10 1023.10 1023.07 1023.05 1023.02 1023.00 1022.99 1022.97 1022.95 1022.90 1022.82 1022.70 1022.54 1022.33 1022.10 1021.84 1021.59 1021.35 1021.16 1021.01 1020.91 1020.87 1020.88 1020.91 1020.96 1020.99 1020.99 1020.95 1020.84 1020.68
1021.41 1021.60 1021.80 1021.99 1022.17 1022.31 1022.41 1022.47 1022.49 1022.47 1022.44 1022.39 1022.34 1022.31 1022.28 1022.25 1022.22 1022.18 1022.11 1022.01 1021.86 1021.67 1021.45 1021.19 1020.93 1020.67 1020.44 1020.24 1020.09 1019.98 1019.91 1019.88 1019.87 1019.85 1019.81 1019.73 1019.61 1019.44
1020.86 1021.03 1021.20 1021.38 1021.53 1021.65 1021.74 1021.78 1021.78 1021.75 1021.69 1021.62 1021.55 1021.49 1021.44 1021.40 1021.37 1021.33 1021.27 1021.19 1021.07 1020.90 1020.70 1020.46 1020.20 1019.93 1019.67 1019.42 1019.21 1019.03 1018.89 1018.78 1018.69 1018.61 1018.52 1018.41 1018.27 1018.09
1020.34 1020.47 1020.61 1020.75 1020.87 1020.96 1021.01 1021.03 1021.00 1020.95 1020.87 1020.78 1020.68 1020.60 1020.53 1020.47 1020.42 1020.38 1020.33 1020.26 1020.16 1020.02 1019.84 1019.62 1019.36 1019.09 1018.80 1018.52 1018.25 1018.01 1017.80 1017.61 1017.45 1017.31 1017.17 1017.03 1016.88 1016.71
1019.83 1019.92 1020.01 1020.10 1020.17 1020.23 1020.25 1020.23 1020.19 1020.11 1020.00 1019.88 1019.76 1019.65 1019.55 1019.46 1019.39 1019.33 1019.28 1019.21 1019.12 1019.00 1018.84 1018.64 1018.40 1018.12 1017.83 1017.52 1017.21 1016.92 1016.65 1016.41 1016.19 1015.99 1015.81 1015.65 1015.49 1015.33
1019.29 1019.34 1019.38 1019.42 1019.44 1019.45 1019.44 1019.39 1019.32 1019.22 1019.09 1018.95 1018.80 1018.66 1018.52 1018.41 1018.31 1018.22 1018.14 1018.07 1017.98 1017.86 1017.72 1017.53 1017.30 1017.04 1016.75 1016.43 1016.11 1015.78 1015.47 1015.19 1014.93 1014.70 1014.49 1014.31 1014.15 1014.00
1018.69 1018.69 1018.69 1018.67 1018.65 1018.62 1018.57 1018.50 1018.40 1018.28 1018.14 1017.98 1017.81 1017.63 1017.47 1017.31 1017.18 1017.06 1016.96 1016.86 1016.76 1016.65 1016.51 1016.34 1016.13 1015.88 1015.60 1015.28 1014.96 1014.63 1014.30 1013.99 1013.71 1013.46 1013.23 1013.04 1012.88 1012.73
1018.03 1017.98 1017.93 1017.87 1017.80 1017.73 1017.65 1017.55 1017.44 1017.30 1017.15 1016.97 1016.78 1016.59 1016.40 1016.21 1016.05 1015.90 1015.77 1015.65 1015.54 1015.42 1015.28 1015.12 1014.93 1014.70 1014.44 1014.14 1013.83 1013.50 1013.17 1012.86 1012.56 1012.30 1012.06 1011.86 1011.68 1011.52
1017.33 1017.24 1017.14 1017.03 1016.93 1016.82 1016.71 1016.59 1016.46 1016.31 1016.15 1015.96 1015.76 1015.56 1015.35 1015.14 1014.95 1014.78 1014.63 1014.50 1014.37 1014.25 1014.12 1013.97 1013.79 1013.59 1013.35 1013.07 1012.77 1012.46 1012.13 1011.82 1011.52 1011.24 1010.98 1010.75 1010.55 1010.36
1016.64 1016.51 1016.38 1016.23 1016.09 1015.95 1015.81 1015.67 1015.52 1015.36 1015.18 1014.99 1014.79 1014.58 1014.36 1014.15 1013.95 1013.77 1013.61 1013.47 1013.34 1013.22 1013.10 1012.96 1012.80 1012.61 1012.39 1012.13 1011.85 1011.54 1011.22 1010.90 1010.58 1010.27 1009.99 1009.72 1009.47 1009.22
1016.04 1015.89 1015.72 1015.54 1015.36 1015.19 1015.02 1014.85 1014.68 1014.51 1014.32 1014.13 1013.92 1013.71 1013.50 1013.29 1013.09 1012.92 1012.76 1012.62 1012.50 1012.39 1012.27 1012.15 1012.00 1011.82 1011.61 1011.36 1011.08 1010.77 1010.44 1010.10 1009.76 1009.42 1009.08 1008.76 1008.43 1008.11
1015.61 1015.44 1015.24 1015.03 1014.82 1014.62 1014.41 1014.22 1014.02 1013.83 1013.63 1013.42 1013.21 1013.00 1012.79 1012.60 1012.41 1012.25 1012.10 1011.98 1011.87 1011.77 1011.66 1011.54 1011.40 1011.23 1011.02 1010.76 1010.47 1010.15 1009.79 1009.42 1009.04 1008.65 1008.25 1007.85 1007.45 1007.03
1015.40 1015.21 1014.99 1014.76 1014.52 1014.28 1014.04 1013.81 1013.58 1013.36 1013.14 1012.91 1012.70 1012.48 1012.28 1012.09 1011.92 1011.77 1011.64 1011.54 1011.44 1011.35 1011.25 1011.13 1010.99 1010.81 1010.58 1010.31 1009.99 1009.64 1009.25 1008.84 1008.40 1007.95 1007.49 1007.01 1006.51 1005.99
Thickness
5701 5700 5699 5698 5697 5696 5696 5695 5693 5690 5686 5685 5684 5682 5683 5682 5683 5685 5686 5686 5687 5689 5691 5692 5693 5694 5695 5696 5697 5698 5699 5700 5701 5701 5702 5703 5703 5704
5697 5697 5696 5696 5694 5693 5693 5693 5693 5691 5685 5684 5681 5680 5678 5679 5678 5681 5681 5681 5682 5683 5685 5686 5686 5687 5688 5689 5690 5691 5691 5692 5693 5694 5695 5695 5695 5696
5697 5695 5693 5692 5692 5691 5690 5689 5689 5687 5682 5680 5679 5678 5676 5676 5676 5677 5678 5679 5678 5678 5678 5679 5680 5680 5681 5682 5682 5683 5683 5684 5685 5686 5687 5687 5688 5688
5694 5693 5691 5689 5688 5688 5686 5686 5684 5684 5681 5676 5676 5675 5674 5673 5672 5673 5674 5675 5674 5672 5672 5673 5673 5673 5674 5674 5675 5675 5675 5676 5677 5677 5678 5679 5679 5679
5691 5690 5689 5687 5685 5684 5683 5682 5681 5679 5677 5676 5673 5670 5671 5669 5669 5669 5670 5669 5670 5669 5667 5667 5666 5666 5667 5667 5667 5667 5668 5668 5668 5669 5669 5670 5670 5671
5688 5687 5686 5684 5682 5681 5679 5678 5676 5675 5673 5672 5670 5668 5667 5665 5666 5666 5666 5666 5665 5665 5663 5662 5661 5660 5660 5660 5659 5659 5659 5659 5660 5660 5660 5661 5661 5662
5686 5684 5681 5678 5675 5675 5675 5673 5672 5670 5669 5667 5665 5665 5663 5661 5661 5661 5661 5661 5661 5660 5659 5658 5657 5656 5655 5653 5652 5651 5650 5650 5650 5650 5651 5651 5651 5652
5683 5681 5677 5674 5670 5668 5667 5665 5664 5665 5665 5662 5661 5660 5659 5657 5654 5655 5655 5656 5656 5654 5653 5652 5651 5650 5648 5646 5644 5643 5642 5641 5641 5640 5640 5640 5641 5642
5680 5678 5675 5672 5668 5667 5663 5660 5658 5655 5654 5657 5656 5655 5653 5652 5649 5649 5648 5648 5647 5647 5645 5646 5645 5644 5641 5639 5637 5635 5633 5632 5631 5631 5631 5631 5631 5631
5675 5674 5671 5669 5665 5663 5661 5659 5657 5654 5650 5650 5650 5648 5646 5644 5642 5641 5640 5640 5640 5638 5636 5638 5638 5637 5635 5633 5629 5627 5625 5623 5622 5621 5621 5621 5620 5621
5670 5668 5666 5664 5658 5655 5655 5654 5651 5648 5644 5642 5640 5638 5635 5633 5632 5632 5632 5632 5633 5633 5629 5628 5629 5629 5628 5626 5623 5620 5617 5616 5614 5613 5612 5611 5610 5610
5665 5663 5658 5656 5652 5649 5649 5648 5646 5644 5641 5638 5634 5632 5630 5628 5624 5624 5624 5624 5624 5624 5622 5618 5619 5618 5619 5619 5615 5612 5610 5608 5606 5604 5603 5601 5600 5599
5661 5658 5655 5649 5645 5643 5641 5641 5639 5635 5634 5632 5630 5628 5625 5623 5620 5617 5615 5613 5613 5613 5611 5607 5606 5605 5604 5607 5606 5603 5600 5599 5597 5596 5593 5591 5589 5586
5655 5653 5650 5644 5640 5636 5634 5632 5629 5626 5626 5625 5623 5621 5618 5616 5613 5610 5607 5604 5601 5600 5598 5595 5594 5592 5591 5592 5594 5593 5590 5587 5586 5585 5583 5581 5578 5576
5649 5645 5641 5636 5633 5630 5626 5623 5620 5619 5618 5616 5615 5613 5610 5607 5604 5600 5598 5594 5592 5590 5587 5584 5582 5580 5578 5578 5580 5580 5579 5577 5574 5572 5570 5568 5567 5565
5640 5637 5632 5629 5625 5623 5621 5617 5614 5612 5610 5608 5606 5604 5600 5597 5593 5591 5588 5586 5584 5583 5579 5575 5571 5569 5567 5566 5565 5566 5565 5564 5562 5559 5556 5555 5553 5551
5635 5632 5629 5625 5622 5619 5616 5613 5609 5606 5602 5599 5596 5594 5591 5588 5585 5582 5579 5576 5575 5574 5572 5567 5563 5559 5556 5554 5554 5554 5553 5551 5548 5545 5543 5543 5541 5538
5626 5625 5623 5620 5617 5614 5611 5607 5602 5599 5595 5591 5588 5585 5582 5579 5576 5573 5569 5566 5565 5563 5561 5557 5553 5549 5548 5548 5543 5541 5539 5537 5535 5532 5528 5528 5529 5526
5618 5619 5617 5614 5610 5607 5603 5599 5596 5592 5587 5583 5579 5576 5573 5570 5567 5563 5560 5557 5555 5552 5550 5545 5541 5537 5536 5539 5539 5528 5524 5523 5520 5518 5515 5513 5514 5513
5613 5612 5610 5607 5603 5599 5595 5591 5587 5583 5578 5574 5571 5567 5563 5560 5556 5553 5550 5547 5545 5542 5539 5535 5531 5526 5522 5522 5523 5520 5511 5508 5506 5504 5503 5501 5500 5498
5608 5605 5602 5598 5594 5590 5586 5581 5577 5573 5569 5565 5562 5557 5553 5549 5546 5544 5541 5537 5532 5531 5529 5526 5522 5514 5510 5506 5507 5509 5505 5497 5492 5489 5488 5486 5486 5486
5601 5597 5593 5589 5585 5580 5576 5572 5568 5564 5560 5556 5553 5549 5544 5540 5537 5534 5531 5527 5524 5521 5518 5515 5510 5504 5499 5496 5495 5495 5494 5489 5484 5478 5474 5470 5467 5471
5591 5587 5583 5579 5574 5569 5565 5562 5558 5555 5551 5547 5544 5540 5535 5531 5528 5524 5521 5517 5514 5510 5507 5503 5498 5493 5489 5485 5483 5482 5481 5478 5475 5472 5469 5463 5457 5455